Location: *
(46.3500°N, 10.9000°E)
Time: 23:32:37
(UTC+00:00)

Vanguard 2 - Pass Details

Date: 23 April 2021
Orbit: 552 x 2938 km, 32.9° (Epoch: 12 May)

Event Time Altitude Azimuth Distance (km) Brightness Sun altitude
Rises 08:49:25 0° 206° (SSW) 6,696 12.4 44.5°
Reaches altitude 10° 08:55:03 10° 195° (SSW) 5,757 12.3 45.3°
Maximum altitude 09:07:53 26° 149° (SSE) 4,376 12.8 47.0°
Drops below altitude 10° 09:18:56 10° 102° (ESE) 4,958 12.4 48.4°
Sets 09:23:14 0° 90° (E) 5,633 12.3 48.9°
